Location: Harbor Hills
(33.7803°N, 118.3148°W)
Time: 06:10:11
(UTC+00:00)

Cosmos 2237 Rocket - Pass Details

Date: 05 August 2024
Orbit: 836 x 848 km, 71.0° (Epoch: 14 September)

Event Time Altitude Azimuth Distance (km) Brightness Sun altitude
Exits shadow 12:14:15 14° 237° (WSW) 2,158 3.6 -11.1°
Maximum altitude 12:18:25 34° 297° (WNW) 1,349 3.0 -10.3°
Drops below altitude 10° 12:23:31 10° 2° (N) 2,458 5.0 -9.4°
Sets 12:26:11 0° 11° (NNE) 3,394 5.9 -8.9°
